Meteo pe oră la

Astăzi, 20 Ianuarie, Miercuri

Timp Temperatura Precipitaţii Vânt Presiune Umiditate
00:00 +25°C° 0.2 mm 4 m/s 762 mmHg 94%
01:00 +23°C° 0.2 mm 4 m/s 762 mmHg 95%
02:00 +23°C° 0.2 mm 4 m/s 762 mmHg 95%
03:00 +23°C° 0.2 mm 4 m/s 761 mmHg 96%
04:00 +23°C° 0.1 mm 4 m/s 762 mmHg 96%
05:00 +23°C° 0.1 mm 4 m/s 762 mmHg 96%
06:00 +23°C° 0.1 mm 4 m/s 762 mmHg 95%
07:00 +23°C° 0.1 mm 4 m/s 762 mmHg 94%
08:00 +25°C° 0.1 mm 4 m/s 763 mmHg 92%
09:00 +25°C° 0.1 mm 5 m/s 763 mmHg 91%
10:00 +26°C° 0.1 mm 5 m/s 763 mmHg 87%
11:00 +27°C° 0.1 mm 5 m/s 763 mmHg 84%
12:00 +28°C° 0.1 mm 5 m/s 763 mmHg 81%
13:00 +28°C° 0.3 mm 5 m/s 762 mmHg 82%
14:00 +28°C° 0.3 mm 6 m/s 762 mmHg 83%
15:00 +28°C° 0.3 mm 6 m/s 761 mmHg 84%
16:00 +27°C° 0 mm 6 m/s 761 mmHg 87%
17:00 +26°C° 0 mm 6 m/s 761 mmHg 89%
18:00 +24°C° 0 mm 6 m/s 761 mmHg 92%
19:00 +25°C° 0 mm 5 m/s 761 mmHg 93%
20:00 +25°C° 0 mm 5 m/s 762 mmHg 93%
21:00 +23°C° 0 mm 5 m/s 763 mmHg 94%
22:00 +23°C° 0.1 mm 4 m/s 763 mmHg 94%
23:00 +23°C° 0.1 mm 4 m/s 763 mmHg 95%

Mâine, 21 Ianuarie, Joi

Timp Temperatura Precipitaţii Vânt Presiune Umiditate
00:00 +23°C° 0.1 mm 4 m/s 763 mmHg 95%
01:00 +23°C° 0.3 mm 4 m/s 762 mmHg 95%
02:00 +23°C° 0.3 mm 4 m/s 762 mmHg 95%
03:00 +23°C° 0.3 mm 4 m/s 762 mmHg 94%
04:00 +23°C° 0.3 mm 4 m/s 762 mmHg 94%
05:00 +24°C° 0.3 mm 3 m/s 762 mmHg 94%
06:00 +22°C° 0.3 mm 3 m/s 762 mmHg 94%
07:00 +24°C° 0.1 mm 3 m/s 762 mmHg 93%
08:00 +24°C° 0.1 mm 2 m/s 763 mmHg 91%
09:00 +25°C° 0.1 mm 2 m/s 763 mmHg 90%
10:00 +26°C° 0 mm 2 m/s 763 mmHg 87%
11:00 +27°C° 0 mm 2 m/s 762 mmHg 83%
12:00 +27°C° 0 mm 2 m/s 762 mmHg 79%
13:00 +28°C° 0 mm 2 m/s 761 mmHg 79%
14:00 +28°C° 0 mm 2 m/s 760 mmHg 78%
15:00 +28°C° 0 mm 2 m/s 759 mmHg 77%
16:00 +27°C° 0 mm 2 m/s 759 mmHg 82%
17:00 +26°C° 0 mm 2 m/s 759 mmHg 86%
18:00 +24°C° 0 mm 3 m/s 759 mmHg 91%
19:00 +24°C° 0 mm 3 m/s 759 mmHg 92%
20:00 +22°C° 0 mm 3 m/s 759 mmHg 94%
21:00 +22°C° 0 mm 3 m/s 760 mmHg 95%
22:00 +23°C° 0 mm 2 m/s 759 mmHg 95%
23:00 +23°C° 0 mm 2 m/s 759 mmHg 95%

Poimâine, 22 Ianuarie, Vineri

Timp Temperatura Precipitaţii Vânt Presiune Umiditate
00:00 +23°C° 0 mm 2 m/s 759 mmHg 95%
01:00 +23°C° 0 mm 2 m/s 758 mmHg 94%
02:00 +23°C° 0 mm 2 m/s 758 mmHg 92%
03:00 +24°C° 0 mm 3 m/s 758 mmHg 91%
04:00 +24°C° 0 mm 2 m/s 758 mmHg 92%
05:00 +24°C° 0 mm 2 m/s 758 mmHg 92%
06:00 +24°C° 0 mm 2 m/s 758 mmHg 93%
07:00 +24°C° 0 mm 2 m/s 758 mmHg 91%
08:00 +25°C° 0 mm 2 m/s 759 mmHg 89%
09:00 +25°C° 0 mm 1 m/s 759 mmHg 87%
10:00 +26°C° 0 mm 1 m/s 759 mmHg 84%
11:00 +28°C° 0 mm 1 m/s 759 mmHg 80%
12:00 +29°C° 0 mm 1 m/s 758 mmHg 77%
13:00 +29°C° 0 mm 1 m/s 758 mmHg 77%
14:00 +29°C° 0 mm 1 m/s 757 mmHg 77%
15:00 +29°C° 0 mm 1 m/s 756 mmHg 77%
16:00 +28°C° 0 mm 1 m/s 756 mmHg 81%
17:00 +27°C° 0 mm 1 m/s 756 mmHg 85%
18:00 +26°C° 0 mm 1 m/s 756 mmHg 90%
19:00 +25°C° 0 mm 1 m/s 757 mmHg 91%
20:00 +24°C° 0 mm 1 m/s 757 mmHg 93%
21:00 +24°C° 0 mm 1 m/s 758 mmHg 95%
22:00 +23°C° 0 mm 1 m/s 758 mmHg 95%
23:00 +23°C° 0 mm 1 m/s 758 mmHg 95%

23 Ianuarie, Sâmbătă

Timp Temperatura Precipitaţii Vânt Presiune Umiditate
00:00 +23°C° 0 mm 1 m/s 758 mmHg 95%
01:00 +23°C° 0 mm 1 m/s 758 mmHg 95%
02:00 +23°C° 0 mm 1 m/s 758 mmHg 95%
03:00 +23°C° 0 mm 1 m/s 758 mmHg 94%
04:00 +23°C° 0 mm 1 m/s 758 mmHg 94%
05:00 +24°C° 0 mm 1 m/s 758 mmHg 94%
06:00 +24°C° 0 mm 1 m/s 758 mmHg 94%
07:00 +25°C° 0 mm 1 m/s 759 mmHg 93%
08:00 +25°C° 0 mm 2 m/s 759 mmHg 92%
09:00 +26°C° 0 mm 2 m/s 760 mmHg 91%
10:00 +27°C° 0 mm 2 m/s 760 mmHg 87%
11:00 +28°C° 0 mm 2 m/s 759 mmHg 83%
12:00 +29°C° 0 mm 3 m/s 759 mmHg 79%
13:00 +29°C° 0 mm 3 m/s 758 mmHg 79%
14:00 +29°C° 0 mm 3 m/s 758 mmHg 80%
15:00 +29°C° 0 mm 3 m/s 757 mmHg 80%
16:00 +28°C° 0 mm 3 m/s 757 mmHg 84%
17:00 +26°C° 0 mm 3 m/s 757 mmHg 89%
18:00 +25°C° 0 mm 2 m/s 757 mmHg 94%
19:00 +25°C° 0 mm 2 m/s 758 mmHg 95%
20:00 +24°C° 0 mm 2 m/s 758 mmHg 96%
21:00 +24°C° 0 mm 2 m/s 759 mmHg 96%
22:00 +24°C° 0 mm 2 m/s 759 mmHg 96%
23:00 +24°C° 0 mm 2 m/s 758 mmHg 96%

24 Ianuarie, Duminică

Timp Temperatura Precipitaţii Vânt Presiune Umiditate
00:00 +24°C° 0 mm 2 m/s 758 mmHg 96%
01:00 +24°C° 0.1 mm 2 m/s 758 mmHg 96%
02:00 +24°C° 0.1 mm 2 m/s 758 mmHg 95%
03:00 +24°C° 0.1 mm 2 m/s 757 mmHg 95%
04:00 +24°C° 0.1 mm 2 m/s 757 mmHg 95%
05:00 +24°C° 0.1 mm 3 m/s 757 mmHg 96%
06:00 +24°C° 0.1 mm 3 m/s 757 mmHg 96%
07:00 +25°C° 0 mm 2 m/s 758 mmHg 95%
08:00 +25°C° 0 mm 2 m/s 758 mmHg 93%
09:00 +26°C° 0 mm 2 m/s 759 mmHg 91%
10:00 +27°C° 0 mm 2 m/s 758 mmHg 88%
11:00 +28°C° 0 mm 1 m/s 758 mmHg 84%
12:00 +29°C° 0 mm 1 m/s 757 mmHg 80%
13:00 +29°C° 0 mm 1 m/s 756 mmHg 78%
14:00 +30°C° 0 mm 1 m/s 756 mmHg 76%
15:00 +30°C° 0 mm 2 m/s 755 mmHg 73%
16:00 +29°C° 0 mm 2 m/s 755 mmHg 79%
17:00 +28°C° 0 mm 2 m/s 755 mmHg 84%
18:00 +27°C° 0 mm 2 m/s 755 mmHg 90%
19:00 +26°C° 0 mm 2 m/s 756 mmHg 91%
20:00 +25°C° 0 mm 1 m/s 756 mmHg 92%
21:00 +25°C° 0 mm 1 m/s 756 mmHg 94%
22:00 +25°C° 0 mm 1 m/s 756 mmHg 93%
23:00 +25°C° 0 mm 1 m/s 756 mmHg 93%

25 Ianuarie, Luni

Timp Temperatura Precipitaţii Vânt Presiune Umiditate
00:00 +24°C° 0 mm 1 m/s 756 mmHg 93%
01:00 +24°C° 0 mm 1 m/s 756 mmHg 93%
02:00 +22°C° 0 mm 0 m/s 755 mmHg 93%
03:00 +22°C° 0 mm 0 m/s 755 mmHg 93%
04:00 +24°C° 0 mm 1 m/s 755 mmHg 94%
05:00 +23°C° 0 mm 1 m/s 755 mmHg 94%
06:00 +23°C° 0 mm 2 m/s 755 mmHg 95%
07:00 +24°C° 0 mm 2 m/s 755 mmHg 93%
08:00 +25°C° 0 mm 2 m/s 756 mmHg 92%
09:00 +26°C° 0 mm 2 m/s 756 mmHg 91%
10:00 +27°C° 0 mm 2 m/s 755 mmHg 87%
11:00 +28°C° 0 mm 2 m/s 755 mmHg 83%
12:00 +29°C° 0 mm 2 m/s 755 mmHg 80%
13:00 +30°C° 0 mm 2 m/s 754 mmHg 75%
14:00 +31°C° 0 mm 1 m/s 753 mmHg 70%
15:00 +32°C° 0 mm 1 m/s 753 mmHg 65%
16:00 +31°C° 0 mm 2 m/s 753 mmHg 69%
17:00 +29°C° 0 mm 2 m/s 753 mmHg 74%
18:00 +28°C° 0 mm 2 m/s 753 mmHg 78%
19:00 +27°C° 0 mm 2 m/s 753 mmHg 81%
20:00 +26°C° 0 mm 2 m/s 754 mmHg 85%
21:00 +25°C° 0 mm 2 m/s 754 mmHg 88%
22:00 +24°C° 0 mm 2 m/s 754 mmHg 89%
23:00 +24°C° 0 mm 2 m/s 754 mmHg 89%
Arată mai mult

Formular de consimțământ

Meteoprog și furnizorii noștri de servicii pot stoca și accesa date personale, precum cookies, identificatori de dispozitiv sau alte tehnologii similare pe dispozitivul dumneavoastră și procesa astfel de date pentru a personaliza conținutul și reclamele, dar și pentru a oferi caracteristici de social media și pentru a analiza traficul.

  • Stocarea și/sau accesarea informațiilor pe dispozitivul dumneavoastră

    Cookies, identificatori de dispozitiv sau alte informații pot fi stocate sau accesate pe dispozitiv în scopurile indicate mai sus.

  • Reclame și conținut personalizat, evaluarea reclamelor și a conținutului, informații despre audiențe și dezvoltarea produselor

    Reclamele și conținutul pot fi personalizate pe baza unui profil. Pot fi adăugate date suplimentare pentru a personaliza mai bine reclamele și conținutul. Performanța reclamelor și conținutului poate fi măsurată. Pot fi obținute informații despre utilizatorii care au văzut reclamele și conținutul. Aceste date pot fi utilizate pentru a dezvolta sau îmbunătăți experiența utilizatorilor, sistemele și software-ul.

Dând clic pe ‘Sunt de acord’, permiteți utilizarea cookie-urilor menționate, a identificatorilor de dispozitiv, balizelor web sau altor tehnologii similare. Setările pot fi modificate din browser-ul dispozitivului dumneavoastră.

În anumite scopuri, interesele legitime pot prima asupra consimțământului. Puteți citi mai multe informații în acest sens în Politica privind Confidențialitatea Datelor și Cookie.